• MPC Preparation (Info)

  • MPEC 2013-U25 : 2008 DE

    The following Minor Planet Electronic Circular may be linked-to from your own Web pages, but must not otherwise be redistributed electronically.

    A form allowing access to any MPEC is at the bottom of this page.


    Read MPEC 2013-U24 Read MPEC 2013-U26


    M.P.E.C. 2013-U25                                Issued 2013 Oct. 23, 16:58 UT
    
         The Minor Planet Electronic Circulars contain information on unusual
             minor planets and routine data on comets.  They are published
       on behalf of Commission 20 of the International Astronomical Union by the
              Minor Planet Center, Smithsonian Astrophysical Observatory,
                              Cambridge, MA 02138, U.S.A.
    
                 Prepared using the Tamkin Foundation Computer Network
    
                                  MPC@CFA.HARVARD.EDU
                URL https://www.minorplanetcenter.net/    ISSN 1523-6714
    
                                        2008 DE
    
                               Revision to MPEC 2008-D26
    
    Additional Observations:
         K08D00E ^C2013 10 12.42135 03 37 55.11 +13 00 21.7          23.6 RoEU025695
         K08D00E ^C2013 10 12.42340 03 37 55.00 +13 00 21.6          23.2 RoEU025695
         K08D00E ^C2013 10 12.42580 03 37 54.83 +13 00 21.4          23.0 RoEU025695
         K08D00E ^C2013 10 12.42820 03 37 54.70 +13 00 21.3          22.9 RoEU025695
         K08D00E ^C2013 10 12.43082 03 37 54.53 +13 00 21.3          22.8 RoEU025695
         K08D00E ^C2013 10 12.43323 03 37 54.36 +13 00 21.2          23.0 RoEU025695
         K08D00E ^C2013 10 12.43563 03 37 54.22 +13 00 21.1          22.8 RoEU025695
         K08D00E ^C2013 10 13.37379 03 36 55.74 +12 59 55.1          23.2 RoEU025695
         K08D00E ^C2013 10 13.37620 03 36 55.57 +12 59 55.2          22.7 RoEU025695
         K08D00E ^C2013 10 13.38365 03 36 55.12 +12 59 54.8                oEU025695
         K08D00E ^C2013 10 13.38605 03 36 54.97 +12 59 54.7                oEU025695
    
    Observer details:
    695 Kitt Peak.  Observers R. S. McMillan, J. V. Scotti, M. Riabokin.
        Measurers J. A. Larsen, J. V. Scotti.  4-m f/2.8 reflector + CCD.
    
    First and last observations above in comparison with prediction:
    Residuals in seconds of arc, reference and Delta-T
    131012 695 52.7- 30.3-    131013 695 52.6- 30.7-    MPO140731   +0.045 day
    
    Orbital elements:
    2008 DE                                             PHA, Earth MOID = 0.0082 AU
    Epoch 2013 Nov. 4.0 TT = JDT 2456600.5                  MPC
    M 157.97044              (2000.0)            P               Q
    n   0.43888530     Peri.  179.13321     -0.57152834     +0.79293958
    a   1.7148864      Node    55.98101     -0.75439451     -0.40646402
    e   0.4140523      Incl.   14.76179     -0.32286882     -0.45390948
    P   2.25           H   19.6           G   0.15           U   0
    Residuals in seconds of arc
    080212 703  0.3-  0.3-    080407 H45  0.1-  0.3-    080503 379  0.1-  0.6+
    080212 703  1.4-  0.0     080407 H45  0.1-  0.1-    080503 379  0.0   0.5+
    080212 703  1.0-  0.2+    080407 H45  0.3+  0.1-    080503 379  0.6-  0.4+
    080212 703  0.8-  0.6+    080411 H45  0.2+  0.1+    080503 379  0.6-  0.1+
    080219 703 (2.9-  0.3-)   080411 H45  0.0   0.1+    080503 379  1.1-  0.5+
    080219 703 (0.5-  2.2+)   080411 H45  0.3+  0.9+    080503 379  0.8-  0.3+
    080219 703  0.0   0.4-    080411 H45  0.3-  0.3+    080503 379  0.5-  0.2-
    080219 703  0.3-  1.0+    080411 H45  0.0   0.0     080503 510  0.2-  0.3+
    080219 703  0.6+  1.0-    080411 H45  0.3-  0.2+    080503 510  0.2-  0.3+
    080219 703  0.4+  0.2-    080411 H45  0.1+  0.1+    080503 510  0.0   0.1+
    080219 703  0.5+  0.8+    080415 H45  0.2+  0.2+    080504 204  0.0   0.0
    080219 703  1.2-  0.5+    080415 H45  0.1+  0.1+    080504 204  0.1-  0.1-
    080219 703 (0.9-  2.0+)   080415 H45  0.3+  0.2+    080504 204  0.0   0.1-
    080219 703  1.0+  0.3-    080415 H45  0.3+  0.1+    080504 204  0.1-  0.1-
    080219 703 (2.8+  0.4-)   080415 H45  0.0   0.1+    080504 204  0.2-  0.1+
    080221 H55  0.5-  0.2+    080415 H45  0.2+  0.0     080504 A35 (2.4-  2.7+)
    080221 H55  0.2+  0.2+    080417 704  1.2+  1.1-    080504 A35 (2.4-  2.7+)
    080221 H55  0.0   0.2+    080417 704  0.3+  0.6-    080504 A35 (2.3-  2.5+)
    080224 A74  0.3-  0.3+    080417 704  1.4+  0.8-    080504 A35 (2.5-  2.8+)
    080224 A74  0.3-  0.3+    080417 704  0.3+  0.1+    080504 A35 (2.4-  2.8+)
    080224 A74  0.7-  0.2+    080417 704 (2.3+  0.1+)   080504 127  0.9-  0.9+
    080224 A74  0.2-  0.3+    080419 B19  0.3-  0.3-    080504 127  0.4-  1.1+
    080224 A74  0.1-  0.2+    080419 B19  0.4-  0.4+    080504 127  0.6-  0.1-
    080224 A74  0.0   0.3+    080419 B19  0.6-  0.3+    080505 H45  0.3+  1.1-
    080227 461  0.2-  0.1+    080419 H45  0.1+  0.6+    080505 H45  0.3+  1.1-
    080227 461  0.0   0.0     080419 H45  0.0   0.2+    080505 H45  0.3+  0.6-
    080227 461  0.0   0.0     080419 H45  0.3+  0.2+    080505 H45  0.5+  0.7-
    080227 461  0.2-  0.1+    080419 H45  0.0   0.2+    080505 H45  0.6+  1.1-
    080227 448  0.7+  0.8+    080419 H45  0.0   0.0     080505 H45  0.5+  0.8-
    080227 448  0.4+  0.3+    080419 H45  0.3+  0.1+    080505 H45  0.3+  0.9-
    080302 448  0.2-  0.5-    080419 198  0.2-  0.0     080505 127  0.2+  1.1+
    080302 448  0.0   0.3-    080419 198  0.2-  0.0     080505 127  0.3+  0.3+
    080302 448  0.2-  0.4-    080419 198  0.2-  0.0     080505 127  0.3+  0.5+
    080303 H85  0.2+  0.3-    080419 198  0.1-  0.0     080506 510  0.2+  0.2-
    080303 H85  0.4-  0.1+    080419 198  0.1-  0.0     080506 510  0.1+  0.1+
    080303 H85  0.2-  0.1-    080424 J51  0.2+  0.4-    080506 510  0.3+  0.1+
    080304 711  0.7-  0.7+    080424 J51  0.1-  0.2-    080506 379  1.0-  0.2+
    080304 711  0.2-  0.4-    080424 J51  0.2-  0.1+    080506 379  0.1+  0.6+
    080304 711  0.0   0.6-    080424 A48  0.6-  0.0     080506 379  0.6-  0.7-
    080308 711  0.2+  0.1+    080424 A48  0.3-  0.0     080506 379  0.7-  0.1+
    080308 711  0.3+  0.2+    080424 A48  0.1-  0.1-    080506 379  0.5-  0.0
    080308 448  0.0   0.1+    080424 A48  0.3-  0.2-    080506 510  0.3-  0.1+
    080308 711  0.4+  0.1+    080426 H45  0.2-  0.6+    080506 510  0.1+  0.1-
    080308 448  0.1-  0.1-    080426 H45  0.0   0.3+    080506 510  0.0   0.1+
    080308 448  0.3-  0.3-    080426 H45  0.1+  0.2+    080507 379  0.1-  0.2+
    080315 704  0.3+  0.0     080426 H45  0.4+  0.3+    080507 379  0.0   0.0
    080315 704  0.5+  0.1-    080426 H45  0.2+  0.4+    080507 379  0.1-  0.3+
    080315 704  0.6-  0.5+    080426 H45  0.0   0.3+    080507 379  0.2+  0.3+
    080315 448  0.0   0.1-    080426 151  0.3-  0.4+    080507 379  0.2-  0.4-
    080315 448  0.2-  0.1-    080426 151  0.4-  0.0     080507 379  0.7-  0.3+
    080315 448  0.3-  0.1-    080426 151  0.2-  0.3-    080507 379  0.5-  0.4+
    080322 H45  0.1-  0.6+    080426 151  0.4-  0.1-    080507 379  0.4-  0.1+
    080322 H45  0.6-  0.1+    080426 151  0.5-  0.1-    080507 379  0.2-  0.2-
    080322 H45  0.0   0.3+    080426 151  0.5-  0.0     080507 379  0.5-  0.1+
    080322 H45  0.2+  0.0     080426 151  0.5-  0.1+    080507 379  0.6-  0.2+
    080322 H45  0.0   0.3-    080429 H45  0.7+  0.6-    080507 379  0.1+  0.5-
    080322 H45  0.4+  0.1+    080429 H45  0.2+  0.3-    080507 379  0.3-  0.1-
    080322 H45  0.6+  0.1+    080429 H45  0.1+  0.3-    080510 198  0.5+  0.5-
    080323 J95  0.1-  0.4-    080429 H45  0.4+  0.5-    080510 198  0.5+  0.6-
    080323 J95  0.5-  0.2-    080429 H45  0.5+  0.4-    080510 198  0.8+  0.2+
    080325 H45  0.9+  0.7+    080429 H45  0.3+  0.4-    080510 198  0.7+  0.6-
    080325 H45  0.0   0.9+    080430 H45  0.3+  0.1+    080510 198  0.4+  0.6-
    080325 H45  0.3+  0.6+    080430 H45  0.1+  0.0     080511 704  0.1-  0.1+
    080325 H45  0.7+  0.3+    080430 H45  0.4+  0.0     080511 704 (3.4+  1.7-)
    080325 H45  0.3+  0.9+    080430 H45  0.1+  0.1+    080511 704  0.2+  0.1-
    080329 704  1.0+  0.4+    080430 H45  0.2+  0.3+    080511 704  0.2+  0.1-
    080329 704  0.9+  0.0     080430 H45  0.0   0.2+    080530 807  0.1+  0.8+
    080329 704  0.6+  0.7+    080430 H45  0.1+  0.0     080530 807  0.1+  0.7+
    080329 704  1.2+  0.3+    080430 127  0.1-  0.2-    080530 807  0.2+  0.5+
    080329 704  0.2+  0.4+    080430 127  0.1-  0.1+    080530 807  0.2+  0.5+
    080331 J34  1.5+  0.1+    080430 127  0.1-  0.2-    080530 807  0.2+  0.7+
    080401 J34  0.8-  0.4+    080430 127  0.1+  0.6-    080530 807  0.3+  0.8+
    080401 J34  0.1-  0.9-    080501 510  0.1-  0.0     080530 807  0.1+  0.6+
    080401 J34  0.3-  0.4-    080501 510  0.2+  0.1-    080530 807  0.2+  0.5+
    080401 J34  0.2-  0.7-    080501 510  0.1-  0.2-    080530 807  0.0   0.5+
    080402 J34  0.0   0.3-    080502 B19  0.4-  0.4+    080530 807  0.4+  0.4+
    080402 J34  0.6+  0.3+    080502 B19  0.1-  0.6+    131012 695  0.4-  0.4+
    080405 235  0.1-  0.2+    080502 B19  0.6-  0.3+    131012 695  0.1-  0.4+
    080406 H45  0.5+  0.8+    080503 H45  0.0   0.5-    131012 695  0.3-  0.3+
    080406 H45  0.5-  0.4+    080503 H45  0.5+  0.2-    131012 695  0.0   0.2+
    080406 H45  0.1+  0.2+    080503 H45  0.4+  0.2-    131012 695  0.0   0.3+
    080406 H45  0.3-  0.2-    080503 H45  0.3+  0.2+    131012 695  0.3-  0.3+
    080406 H45  0.1+  0.1-    080503 H45  0.4+  0.0     131012 695  0.1-  0.2+
    080406 H45  0.1+  0.1+    080503 H45  0.6+  0.5-    131013 695  0.4-  0.2+
    080407 H45  0.4+  0.0     080503 H45  0.3+  0.3+    131013 695  0.5-  0.4+
    080407 H45  0.2+  0.2-    080503 379  0.9-  0.6+    131013 695  0.0   0.2+
    080407 H45  0.1+  0.2-    080503 379  0.8-  0.2-    131013 695  0.1+  0.2+
    
    Ephemeris:
    2008 DE                  a,e,i = 1.71, 0.41, 15                  q = 1.0048
    Date    TT    R. A. (2000) Decl.     Delta      r     Elong.  Phase     V
    2013 09 23    03 50 55.3 +12 58 22   1.6518  2.3361   121.3    21.5    23.6
    ...
    2013 10 08    03 42 06.4 +13 01 48   1.5236  2.3627   138.0    16.4    23.3
    ...
    2013 10 16    03 34 02.4 +12 58 30   1.4716  2.3749   147.7    12.9    23.1
    ...
    2013 10 22    03 26 38.4 +12 54 01   1.4423  2.3833   155.4    10.0    22.9
    2013 10 23    03 25 18.6 +12 53 07   1.4383  2.3846   156.6     9.5    22.9
    2013 10 24    03 23 57.2 +12 52 11   1.4346  2.3859   157.9     9.0    22.9
    ...
    2013 10 30    03 15 21.7 +12 45 58   1.4181  2.3932   165.7     5.9    22.7
    ...
    2013 11 07    03 03 07.4 +12 36 45   1.4129  2.4017   174.9     2.1    22.5
    ...
    2013 11 22    02 40 38.8 +12 23 05   1.4563  2.4141   161.7     7.4    22.9
    
    A. U. Tomatic                (C) Copyright 2013 MPC           M.P.E.C. 2013-U25
    

    Read MPEC 2013-U24 Read MPEC 2013-U26


    MPEC number:

    Enter an MPEC number in one of the following forms:

    • 1997-B01 (the full form)
    • J97B01 (the packed version of the full form)
    • B01 (the abbreviated form)